Fort Madison
Tuesday 11:35 PM
Temperature57° (73°/54°)
Dew Point55°
Relative Humidity94
%
Visibility10
mi
Pressure1020.0
mb
Wind Direction
Wind SpeedCalm
Precipitation Today0.00"

Last 30 Observations

Time PresWx Temp DP Feels RH% Vsby Pressure Ceiling Direction Speed 1h Precip
11:15 PM 57° 57° 100
%
10
mi
1020.0
mb
Calm 0.00"
10:55 PM 57° 57° 100
%
10
mi
1019.7
mb
Calm 0.00"
10:35 PM 57° 57° 100
%
10
mi
1019.7
mb
Calm 0.00"
10:15 PM 57° 57° 100
%
10
mi
1019.7
mb
Calm 0.00"
9:55 PM 59° 57° 94
%
10
mi
1019.7
mb
Calm 0.00"
9:35 PM 61° 57° 88
%
10
mi
1019.7
mb
Calm 0.00"
9:15 PM 61° 57° 88
%
10
mi
1019.7
mb
Calm 0.00"
8:55 PM 61° 57° 88
%
10
mi
1019.7
mb
Calm 0.00"
8:35 PM 63° 59° 88
%
10
mi
1019.7
mb
Calm 0.00"
8:15 PM 64° 61° 88
%
10
mi
1019.3
mb
Calm 0.00"
7:55 PM 66° 61° 83
%
10
mi
1019.3
mb
Calm 0.00"
7:35 PM 70° 61° 73
%
10
mi
1019.3
mb
Calm 0.00"
7:15 PM 70° 61° 73
%
10
mi
1019.7
mb
Calm 0.00"
6:55 PM 72° 55° 71°57
%
10
mi
1019.3
mb
7,500
ft
E
80°
5
mph
0.00"
6:35 PM 73° 55° 73°53
%
10
mi
1019.3
mb
7,500
ft
ENE
70°
3
mph
0.00"
6:15 PM 73° 55° 73°53
%
10
mi
1019.3
mb
Calm 0.00"
5:55 PM 73° 55° 73°53
%
10
mi
1019.7
mb
WNW
300°
3
mph
0.00"
5:35 PM 73° 54° 73°50
%
10
mi
1019.7
mb
Calm 0.00"
5:15 PM 73° 55° 73°53
%
10
mi
1020.0
mb
Calm 0.00"
4:55 PM 72° 57° 71°60
%
10
mi
1020.0
mb
7,500
ft
Calm 0.00"
4:35 PM 72° 55° 71°57
%
10
mi
1020.0
mb
7,500
ft
NE
40°
3
mph
0.00"
4:15 PM 70° 55° 60
%
10
mi
1020.0
mb
7,500
ft
NE
50°
5
mph
0.00"
3:55 PM 73° 57° 73°57
%
10
mi
1020.3
mb
6,500
ft
Calm 0.00"
3:35 PM 73° 57° 73°57
%
10
mi
1020.3
mb
6,500
ft
E
100°
3
mph
0.00"
3:15 PM 73° 55° 73°53
%
10
mi
1020.3
mb
7,500
ft
Calm 0.00"
2:55 PM 72° 57° 71°60
%
10
mi
1020.3
mb
Calm 0.00"
2:35 PM 72° 55° 71°57
%
10
mi
1020.3
mb
7,500
ft
NNE
30°
5
mph
0.00"
2:15 PM 72° 55° 71°57
%
10
mi
1020.3
mb
Calm 0.00"
1:55 PM 72° 57° 71°60
%
10
mi
1020.7
mb
7,500
ft
NNW
340°
3
mph
0.00"
1:35 PM 70° 55° 60
%
10
mi
1020.7
mb
7,500
ft
NNE
30°
5
mph
0.00"